GW5321 Weather Reports


time (UTC)temp
C
wind
direction
speed
KPH
gust
KPH
rain 1hr
cm
rain 24hr
cm
rain mn
cm
humidity
%
barometer
mb
20260510225429 24 219 6.4 8.0 0.00 0.00 0.00 85 1016.0
20260510224929 24 219 6.4 9.7 0.00 0.00 0.00 85 1016.0
20260510224429 24 220 6.4 9.7 0.00 0.00 0.00 85 1016.0
20260510223929 24 219 8.0 9.7 0.00 0.00 0.00 84 1016.0
20260510223429 24 208 8.0 9.7 0.00 0.00 0.00 84 1016.0
20260510222929 24 208 6.4 8.0 0.00 0.00 0.00 84 1016.0
20260510222430 24 212 4.8 6.4 0.00 0.00 0.00 84 1016.0
20260510221929 24 225 8.0 9.7 0.00 0.00 0.00 84 1016.0
20260510221430 24 213 6.4 8.0 0.00 0.00 0.00 84 1016.0
20260510220929 24 215 6.4 9.7 0.00 0.00 0.00 84 1016.0
20260510220429 24 218 6.4 8.0 0.00 0.00 0.00 84 1016.0
20260510215929 24 210 6.4 12.9 0.00 0.00 0.00 84 1016.0
20260510215430 24 206 6.4 9.7 0.00 0.00 0.00 84 1016.0
20260510214929 24 200 6.4 6.4 0.00 0.00 0.00 84 1016.0
20260510214429 24 205 6.4 9.7 0.00 0.00 0.00 84 1016.0
20260510213929 24 201 6.4 9.7 0.00 0.00 0.00 84 1016.0
20260510213429 24 203 6.4 8.0 0.00 0.00 0.00 84 1016.0
20260510212929 24 193 6.4 6.4 0.00 0.00 0.00 83 1016.0
20260510212429 24 171 6.4 9.7 0.00 0.00 0.00 83 1016.0
20260510211932 24 183 6.4 8.0 0.00 0.00 0.00 83 1016.0
20260510211430 24 183 4.8 8.0 0.00 0.00 0.00 83 1016.0
20260510210929 24 181 4.8 8.0 0.00 0.00 0.00 83 1016.0
20260510210429 24 179 4.8 8.0 0.00 0.00 0.00 84 1016.0
20260510205929 24 181 4.8 6.4 0.00 0.00 0.00 84 1016.0
20260510205429 24 191 4.8 9.7 0.00 0.00 0.00 84 1016.0
20260510204929 24 177 4.8 6.4 0.00 0.00 0.00 83 1016.0
20260510204429 24 176 4.8 8.0 0.00 0.00 0.00 83 1016.0
20260510203929 24 173 4.8 8.0 0.00 0.00 0.00 83 1016.0
20260510203429 24 183 4.8 6.4 0.00 0.00 0.00 83 1016.0
20260510202929 24 179 6.4 8.0 0.00 0.00 0.00 83 1016.0
20260510202429 24 164 6.4 11.3 0.00 0.00 0.00 83 1016.0
20260510201929 24 181 4.8 8.0 0.00 0.00 0.00 82 1016.0
20260510201430 24 154 6.4 9.7 0.00 0.00 0.00 82 1016.0
20260510200929 24 167 6.4 9.7 0.00 0.00 0.00 82 1016.0
20260510200429 24 162 8.0 12.9 0.00 0.00 0.00 82 1016.0
20260510195929 24 170 8.0 11.3 0.00 0.00 0.00 82 1016.0
20260510195429 24 150 6.4 11.3 0.00 0.00 0.00 82 1016.0
20260510194929 24 162 9.7 12.9 0.00 0.00 0.00 81 1016.0
20260510194429 24 164 8.0 9.7 0.00 0.00 0.00 82 1016.0
20260510193929 24 181 8.0 9.7 0.00 0.00 0.00 82 1016.0
20260510193429 24 155 8.0 11.3 0.00 0.00 0.00 82 1016.0
20260510192929 24 150 6.4 9.7 0.00 0.00 0.00 82 1016.0
20260510192429 24 146 8.0 9.7 0.00 0.00 0.00 82 1016.0
20260510191929 24 141 6.4 11.3 0.00 0.00 0.00 82 1016.0
20260510191430 24 147 6.4 9.7 0.00 0.00 0.00 81 1016.0
20260510190929 24 166 6.4 11.3 0.00 0.00 0.00 82 1016.0
20260510190429 24 143 4.8 6.4 0.00 0.00 0.00 82 1017.0
20260510185929 24 152 6.4 9.7 0.00 0.00 0.00 82 1017.0
20260510185429 24 160 6.4 9.7 0.00 0.00 0.00 82 1017.0
20260510184929 24 139 8.0 12.9 0.00 0.00 0.00 83 1017.0
20260510184429 24 149 8.0 9.7 0.00 0.00 0.00 83 1017.0
20260510183931 24 142 8.0 11.3 0.00 0.00 0.00 83 1017.0
20260510183429 24 156 4.8 8.0 0.00 0.00 0.00 83 1017.0
20260510182930 24 135 6.4 9.7 0.00 0.00 0.00 82 1017.0
20260510182429 24 148 6.4 9.7 0.00 0.00 0.00 82 1017.0
20260510181929 24 141 6.4 9.7 0.00 0.00 0.00 82 1017.0
20260510181429 24 142 4.8 8.0 0.00 0.00 0.00 83 1017.0
20260510180929 24 159 6.4 9.7 0.00 0.00 0.00 83 1017.0
20260510180429 24 153 4.8 9.7 0.00 0.00 0.00 83 1017.0
20260510175929 23 161 6.4 9.7 0.00 0.00 0.00 83 1017.0
20260510175429 23 168 6.4 12.9 0.00 0.00 0.00 83 1017.0
20260510174929 23 167 6.4 9.7 0.00 0.00 0.00 83 1017.0
20260510174429 24 168 4.8 9.7 0.00 0.00 0.00 83 1017.0
20260510173930 24 161 6.4 9.7 0.00 0.00 0.00 83 1017.0
20260510173429 24 148 8.0 9.7 0.00 0.00 0.00 83 1017.0
20260510172929 24 148 8.0 11.3 0.00 0.00 0.00 83 1017.0
20260510172429 24 149 6.4 9.7 0.00 0.00 0.00 83 1017.0
20260510171929 24 142 8.0 11.3 0.00 0.00 0.00 83 1017.0
20260510171429 24 139 8.0 11.3 0.00 0.00 0.00 82 1017.0
20260510170929 24 133 8.0 12.9 0.00 0.00 0.00 82 1017.0
20260510170429 24 122 8.0 11.3 0.00 0.00 0.00 82 1017.0
20260510165929 24 120 8.0 14.5 0.00 0.00 0.00 83 1017.0
20260510165429 24 123 8.0 11.3 0.00 0.00 0.00 83 1017.0
20260510164929 24 118 8.0 12.9 0.00 0.00 0.00 83 1017.0
20260510164429 24 107 9.7 12.9 0.00 0.00 0.00 84 1017.0
20260510163929 24 128 8.0 12.9 0.00 0.00 0.00 84 1017.0
20260510163429 24 115 8.0 12.9 0.00 0.00 0.00 84 1017.0
20260510162929 24 110 9.7 12.9 0.00 0.00 0.00 84 1017.0
20260510162429 24 114 9.7 12.9 0.00 0.00 0.00 84 1017.0
20260510161931 24 113 9.7 14.5 0.00 0.00 0.00 84 1017.0
20260510160948 24 104 9.7 14.5 0.00 0.00 0.00 84 1017.0
20260510160429 24 95 11.3 16.1 0.00 0.00 0.00 84 1017.0
20260510155527 24 88 9.7 12.9 0.00 0.00 0.00 85 1017.0
20260510154929 23 97 14.5 17.7 0.00 0.00 0.00 86 1017.0
20260510154429 23 95 12.9 17.7 0.00 0.00 0.00 86 1017.0
20260510153934 23 94 11.3 16.1 0.00 0.00 0.00 87 1017.0
20260510153429 23 96 11.3 16.1 0.00 0.00 0.00 88 1017.0
20260510152929 23 87 11.3 16.1 0.00 0.00 0.00 88 1017.0
20260510152430 23 90 9.7 14.5 0.00 0.00 0.00 89 1017.0
20260510151930 23 91 9.7 14.5 0.00 0.00 0.00 89 1017.0
20260510151430 23 97 11.3 14.5 0.00 0.00 0.00 89 1017.0
20260510150929 23 98 9.7 14.5 0.00 0.00 0.00 90 1017.0
20260510150430 23 88 9.7 14.5 0.00 0.00 0.00 90 1017.0
20260510145929 23 100 9.7 14.5 0.00 0.00 0.00 90 1017.0
20260510145429 23 96 8.0 14.5 0.00 0.00 0.00 91 1017.0
20260510144929 23 100 8.0 11.3 0.00 0.00 0.00 91 1017.0
20260510144429 23 100 9.7 14.5 0.00 0.00 0.00 91 1017.0
20260510143929 23 98 8.0 12.9 0.00 0.00 0.00 91 1017.0
20260510143429 23 98 8.0 12.9 0.00 0.00 0.00 92 1017.0
20260510142930 23 103 6.4 11.3 0.00 0.00 0.00 92 1017.0
20260510142429 22 102 8.0 12.9 0.00 0.00 0.00 92 1017.0
20260510141930 22 100 6.4 11.3 0.00 0.00 0.00 92 1017.0
20260510141429 22 110 6.4 11.3 0.00 0.00 0.00 92 1017.0
20260510140929 22 112 6.4 9.7 0.00 0.00 0.00 93 1017.0
20260510140429 22 120 6.4 8.0 0.00 0.00 0.00 93 1017.0
20260510135929 22 109 6.4 9.7 0.00 0.00 0.00 93 1017.0
20260510135429 22 130 6.4 14.5 0.00 0.00 0.00 93 1017.0
20260510133929 22 131 8.0 16.1 0.00 0.00 0.00 93 1017.0
20260510133429 22 142 4.8 11.3 0.00 0.00 0.00 93 1017.0
20260510132930 22 106 4.8 6.4 0.00 0.00 0.00 94 1017.0
20260510132429 21 87 8.0 12.9 0.00 0.00 0.00 94 1017.0
20260510131929 21 87 6.4 11.3 0.00 0.00 0.00 94 1017.0
20260510131429 21 98 6.4 11.3 0.00 0.00 0.00 94 1017.0
20260510130929 21 62 6.4 9.7 0.00 0.00 0.00 94 1017.0
20260510130430 21 321 6.4 8.0 0.00 0.00 0.00 94 1017.0
20260510125929 21 28 6.4 6.4 0.00 0.00 0.00 94 1017.0
20260510125429 21 106 8.0 16.1 0.00 0.00 0.00 94 1016.0
20260510124929 21 76 8.0 11.3 0.00 0.00 0.00 94 1016.0
20260510124430 21 60 4.8 11.3 0.00 0.00 0.00 94 1016.0
20260510123929 20 83 4.8 9.7 0.00 0.00 0.00 94 1016.0
20260510123429 20 217 6.4 16.1 0.00 0.00 0.00 94 1016.0
20260510122930 20 156 3.2 8.0 0.00 0.00 0.00 94 1016.0
20260510122429 20 23 4.8 8.0 0.00 0.00 0.00 94 1016.0
20260510121929 20 345 3.2 6.4 0.00 0.00 0.00 94 1016.0
20260510121429 20 173 3.2 6.4 0.00 0.00 0.00 94 1016.0
20260510120929 20 39 4.8 9.7 0.00 0.00 0.00 94 1016.0
20260510120430 20 196 4.8 9.7 0.00 0.00 0.00 94 1016.0
20260510115929 20 254 6.4 11.3 0.00 0.00 0.00 94 1016.0
20260510115430 20 35 4.8 8.0 0.00 0.00 0.00 94 1016.0
20260510114931 20 175 4.8 11.3 0.00 0.00 0.00 94 1016.0
20260510114429 20 151 4.8 6.4 0.00 0.00 0.00 94 1015.0
20260510113930 20 213 4.8 6.4 0.00 0.00 0.00 93 1015.0
20260510113430 20 187 3.2 6.4 0.00 0.00 0.00 93 1015.0
20260510112929 20 213 3.2 6.4 0.00 0.00 0.00 93 1015.0
20260510112429 20 311 3.2 4.8 0.00 0.00 0.00 93 1015.0
20260510111929 20 281 3.2 6.4 0.00 0.00 0.00 93 1015.0
20260510111430 20 133 4.8 9.7 0.00 0.00 0.00 93 1015.0
20260510110929 20 168 8.0 12.9 0.00 0.00 0.00 93 1015.0
20260510110430 20 162 6.4 16.1 0.00 0.00 0.00 93 1015.0
20260510105929 20 278 3.2 6.4 0.00 0.00 0.00 93 1015.0
20260510105429 20 303 3.2 6.4 0.00 0.00 0.00 93 1015.0
20260510104929 20 298 3.2 4.8 0.00 0.00 0.00 93 1015.0
20260510104429 20 352 6.4 8.0 0.00 0.00 0.00 93 1015.0
20260510103929 20 12 4.8 8.0 0.00 0.00 0.00 93 1015.0
20260510103429 20 79 4.8 8.0 0.00 0.00 0.00 93 1015.0
20260510102929 20 28 6.4 9.7 0.00 0.00 0.00 93 1015.0
20260510102429 20 44 4.8 6.4 0.00 0.00 0.00 93 1014.0
20260510101930 20 44 3.2 6.4 0.00 0.00 0.00 93 1014.0
20260510101429 20 30 4.8 6.4 0.00 0.00 0.00 93 1014.0
20260510100929 20 9 3.2 4.8 0.00 0.00 0.00 93 1014.0
20260510100429 20 358 3.2 4.8 0.00 0.00 0.00 93 1015.0
20260510095930 20 95 1.6 3.2 0.00 0.00 0.00 93 1014.0
20260510095429 20 57 1.6 4.8 0.00 0.00 0.00 93 1014.0
20260510094929 20 339 3.2 6.4 0.00 0.00 0.00 93 1014.0
20260510094429 20 325 3.2 4.8 0.00 0.00 0.00 93 1014.0
20260510093930 20 358 3.2 4.8 0.00 0.00 0.00 93 1014.0
20260510093429 20 26 1.6 4.8 0.00 0.00 0.00 93 1014.0
20260510092929 20 2 4.8 8.0 0.00 0.00 0.00 93 1014.0
20260510092429 20 56 4.8 6.4 0.00 0.00 0.00 93 1014.0
20260510091934 20 69 3.2 4.8 0.00 0.00 0.00 93 1014.0
20260510091429 21 156 3.2 6.4 0.00 0.00 0.00 93 1014.0
20260510090929 21 232 3.2 4.8 0.00 0.00 0.00 93 1014.0
20260510090430 21 119 3.2 4.8 0.00 0.00 0.00 93 1014.0
20260510085930 21 216 4.8 8.0 0.00 0.00 0.00 93 1014.0
20260510085429 21 70 3.2 6.4 0.00 0.00 0.00 92 1014.0
20260510084930 21 115 3.2 6.4 0.00 0.00 0.00 92 1013.0
20260510084429 21 66 3.2 6.4 0.00 0.00 0.00 92 1013.0
20260510083929 21 75 3.2 4.8 0.00 0.00 0.00 92 1013.0
20260510083429 21 67 4.8 6.4 0.00 0.00 0.00 92 1013.0
20260510082930 21 81 8.0 12.9 0.00 0.00 0.00 92 1013.0
20260510082429 21 77 8.0 12.9 0.00 0.00 0.00 92 1013.0
20260510081929 21 69 6.4 9.7 0.00 0.00 0.00 92 1013.0
20260510081429 21 68 4.8 6.4 0.00 0.00 0.00 92 1013.0
20260510080930 21 69 6.4 9.7 0.00 0.00 0.00 92 1013.0
20260510080429 21 61 4.8 8.0 0.00 0.00 0.00 92 1013.0
20260510075929 21 82 8.0 11.3 0.00 0.00 0.00 92 1013.0
20260510075429 21 79 3.2 4.8 0.00 0.00 0.00 92 1013.0
20260510074929 21 80 3.2 6.4 0.00 0.00 0.00 92 1013.0
20260510074429 21 79 3.2 6.4 0.00 0.00 0.00 92 1013.0
20260510073929 21 152 1.6 4.8 0.00 0.00 0.00 92 1013.0
20260510073430 21 81 3.2 4.8 0.00 0.00 0.00 92 1013.0
20260510072929 21 80 3.2 6.4 0.00 0.00 0.00 91 1013.0
20260510072429 21 80 4.8 6.4 0.00 0.00 0.00 91 1013.0
20260510071929 21 35 3.2 3.2 0.00 0.00 0.00 91 1013.0
20260510071429 21 65 1.6 3.2 0.00 0.00 0.00 91 1013.0
20260510070929 21 42 3.2 6.4 0.00 0.00 0.00 91 1013.0
20260510070429 21 141 3.2 4.8 0.00 0.00 0.00 91 1013.0
20260510065929 21 236 1.6 3.2 0.00 0.00 0.00 91 1013.0
20260510065429 21 219 1.6 3.2 0.00 0.00 0.00 91 1013.0
20260510064929 21 61 4.8 6.4 0.00 0.00 0.00 91 1013.0
20260510064429 21 106 3.2 4.8 0.00 0.00 0.00 91 1013.0
20260510063929 21 143 1.6 6.4 0.00 0.00 0.00 90 1013.0
20260510063429 21 55 4.8 6.4 0.00 0.00 0.00 90 1013.0
20260510062930 21 50 4.8 6.4 0.00 0.00 0.00 90 1013.0
20260510062429 21 113 3.2 4.8 0.00 0.00 0.00 90 1013.0
20260510061929 21 109 0.0 1.6 0.00 0.00 0.00 90 1013.0
20260510061429 21 198 3.2 4.8 0.00 0.00 0.00 90 1013.0
20260510060929 22 178 3.2 4.8 0.00 0.00 0.00 89 1014.0
20260510060429 22 294 1.6 3.2 0.00 0.00 0.00 89 1014.0
20260510055929 22 165 1.6 3.2 0.00 0.00 0.00 89 1014.0
20260510055429 22 211 4.8 6.4 0.00 0.00 0.00 89 1014.0
20260510054929 22 346 1.6 3.2 0.00 0.00 0.00 89 1014.0
20260510054429 22 329 0.0 1.6 0.00 0.00 0.00 89 1014.0
20260510053929 22 322 0.0 0.0 0.00 0.00 0.00 89 1014.0
20260510053429 22 333 1.6 3.2 0.00 0.00 0.00 89 1014.0
20260510052936 22 296 1.6 3.2 0.00 0.00 0.00 89 1014.0
20260510052429 22 221 1.6 1.6 0.00 0.00 0.00 89 1014.0
20260510051929 22 157 0.0 1.6 0.00 0.00 0.00 89 1013.0
20260510051431 22 194 1.6 3.2 0.00 0.00 0.00 89 1014.0
20260510050929 22 155 3.2 4.8 0.00 0.00 0.00 89 1014.0
20260510050429 22 118 6.4 8.0 0.00 0.00 0.00 89 1013.0
20260510045929 22 129 6.4 8.0 0.00 0.00 1.96 89 1013.0
20260510045429 22 136 6.4 8.0 0.00 0.00 1.96 89 1013.0
20260510044929 22 161 4.8 6.4 0.00 0.00 1.96 89 1014.0
20260510044429 22 186 4.8 6.4 0.00 0.00 1.96 89 1014.0
20260510043929 22 159 3.2 6.4 0.00 0.00 1.96 89 1014.0
20260510043429 22 192 3.2 4.8 0.00 0.00 1.96 89 1014.0
20260510042929 22 194 3.2 6.4 0.00 0.00 1.96 89 1014.0
20260510042429 22 230 3.2 4.8 0.00 0.00 1.96 89 1014.0
20260510041930 22 230 3.2 4.8 0.00 0.00 1.96 89 1014.0
20260510041429 22 262 1.6 1.6 0.00 0.00 1.96 89 1014.0
20260510040929 22 220 3.2 4.8 0.00 0.00 1.96 89 1014.0
20260510040429 22 199 3.2 4.8 0.05 0.00 1.93 89 1014.0
20260510035929 22 217 3.2 4.8 0.03 0.00 1.93 89 1014.0
20260510035429 22 200 4.8 4.8 0.05 0.00 1.93 89 1014.0
20260510034929 22 238 4.8 6.4 0.00 0.00 1.93 89 1015.0
20260510034429 21 238 3.2 3.2 0.00 0.00 1.93 89 1015.0
20260510033930 21 280 0.0 1.6 0.00 0.00 1.93 89 1014.0
20260510033429 21 243 1.6 1.6 0.00 0.00 1.93 89 1014.0
20260510032929 21 293 0.0 0.0 0.00 0.00 1.93 89 1014.0
20260510032429 22 193 3.2 3.2 0.00 0.00 1.93 89 1014.0
20260510031929 22 174 1.6 3.2 0.00 0.00 1.93 89 1014.0
20260510031429 22 195 1.6 3.2 0.00 0.00 1.93 89 1014.0
20260510030930 22 189 1.6 3.2 0.00 0.00 1.93 89 1014.0
20260510030429 22 139 3.2 4.8 0.00 0.00 1.93 89 1014.0
20260510025929 22 162 3.2 4.8 0.00 0.00 1.93 89 1014.0
20260510025429 22 174 3.2 4.8 0.00 0.00 1.93 89 1014.0
20260510024929 22 142 4.8 4.8 0.00 0.00 1.93 89 1014.0
20260510024429 22 139 3.2 4.8 0.00 0.00 1.93 89 1014.0
20260510023929 22 128 6.4 8.0 0.00 0.00 1.93 89 1014.0
20260510023429 22 138 6.4 9.7 0.00 0.00 1.93 89 1013.0
20260510022929 22 132 8.0 9.7 0.00 0.00 1.93 89 1013.0
20260510022429 22 132 8.0 11.3 0.00 0.00 1.93 89 1013.0
20260510021929 22 162 4.8 6.4 0.00 0.00 1.93 89 1013.0
20260510021429 22 152 6.4 8.0 0.00 0.00 1.93 89 1013.0
20260510020929 22 144 6.4 8.0 0.00 0.00 1.93 89 1013.0
20260510020429 22 144 6.4 9.7 0.00 0.00 1.93 89 1014.0
20260510015929 22 153 6.4 8.0 0.00 0.00 1.93 89 1014.0
20260510015429 22 176 4.8 6.4 0.00 0.00 1.93 89 1014.0
20260510014929 22 176 4.8 6.4 0.00 0.00 1.93 89 1014.0
20260510014429 22 188 4.8 6.4 0.00 0.00 1.93 89 1014.0
20260510013929 22 188 4.8 6.4 0.00 0.00 1.93 89 1014.0
20260510013429 22 171 4.8 6.4 0.00 0.00 1.93 88 1014.0
20260510012929 22 185 4.8 8.0 0.00 0.00 1.93 88 1014.0
20260510012430 22 192 4.8 6.4 0.00 0.00 1.93 88 1014.0
20260510011929 22 158 4.8 6.4 0.00 0.00 1.93 88 1014.0
20260510011429 22 214 1.6 3.2 0.00 0.00 1.93 88 1014.0
20260510010929 22 158 3.2 4.8 0.00 0.00 1.93 88 1014.0
20260510010429 22 167 6.4 8.0 0.00 0.00 1.93 88 1014.0
20260510005929 22 137 9.7 12.9 0.00 0.00 1.96 88 1014.0
20260510005429 22 137 12.9 16.1 0.00 0.00 1.96 88 1013.0
20260510004930 22 139 12.9 16.1 0.00 0.00 1.96 88 1013.0
20260510004429 22 129 16.1 22.5 0.00 0.00 1.96 88 1013.0
20260510003929 22 136 9.7 14.5 0.00 0.00 1.96 88 1013.0
20260510003429 22 148 11.3 16.1 0.00 0.00 1.96 88 1013.0
20260510002929 22 137 11.3 16.1 0.00 0.00 1.96 88 1013.0
20260510002429 22 137 9.7 12.9 0.00 0.00 1.96 88 1013.0
20260510001929 22 144 6.4 9.7 0.00 0.00 1.96 88 1013.0
20260510001429 22 137 9.7 12.9 0.00 0.00 1.96 88 1013.0
20260510000929 22 143 9.7 12.9 0.00 0.00 1.96 88 1013.0
20260510000429 22 141 9.7 12.9 0.00 0.00 1.96 88 1013.0
20260509235929 22 130 9.7 11.3 0.00 0.00 1.96 88 1013.0
20260509235430 22 126 8.0 11.3 0.00 0.00 1.96 88 1013.0
20260509234929 21 128 8.0 11.3 0.00 0.00 1.96 88 1013.0
20260509234430 21 129 8.0 11.3 0.00 0.00 1.96 88 1013.0
20260509233930 21 134 6.4 9.7 0.00 0.00 1.96 88 1013.0
20260509233429 21 134 4.8 6.4 0.00 0.00 1.96 88 1013.0
20260509232929 21 111 4.8 4.8 0.00 0.00 1.96 88 1013.0
20260509232429 21 110 3.2 6.4 0.00 0.00 1.96 88 1013.0
20260509231929 21 122 4.8 6.4 0.00 0.00 1.91 87 1013.0
20260509231431 21 91 6.4 8.0 0.03 0.00 1.91 87 1013.0
20260509230929 21 85 4.8 6.4 0.00 0.00 1.91 87 1013.0
20260509230429 22 99 6.4 8.0 0.00 0.00 1.91 87 1013.0
20260509225929 22 110 4.8 6.4 0.00 0.00 1.91 87 1013.0